Georgetown, TX

5:12 PM CDT on May 20, 2018 (GMT -0500)
Georgetown Municipal

Weather History for KGTU - October, 2013

Change the Weather History Date:

Sunday, October 27, 2013

  Actual Average Record
Temperature  
Mean Temperature 66 °F -  
Max Temperature 71 °F 73 °F 87 °F (2016)
Min Temperature 62 °F 56 °F 37 °F (1997)
Cooling Degree Days 2    
Growing Degree Days 16 (Base 50)    
Moisture  
Dew Point 62 °F    
Average Humidity 89    
Maximum Humidity 100    
Minimum Humidity 73    
Precipitation  
Precipitation 0.00 in - - ()
Sea Level Pressure  
Sea Level Pressure 30.08 in    
Wind  
Wind Speed 5 mph (East)    
Max Wind Speed 9 mph    
Max Gust Speed -    
Visibility 9 miles    
Events Thunderstorm    
Averages and records for this station are not official NWS values.
T = Trace of Precipitation, MM = Missing Value Source: NWS Daily Summary

Daily Weather History Graph

Daily Weather History Graph

Search for Another Location

Airport or City:

Astronomy

Oct. 27, 2013 Rise Set
Actual Time 7:41 AM CDT 6:46 PM CDT
Civil Twilight 7:17 AM CDT 7:11 PM CDT
Nautical Twilight 6:48 AM CDT 7:39 PM CDT
Astronomical Twilight 6:20 AM CDT 8:07 PM CDT
Moon 1:07 AM CDT (10/27) 2:31 PM CDT (10/27)
Length of Visible Light 11h 54m
Length of Day
11h 04m
Last Quarter, 43% of the Moon is Illuminated
Oct 27
Last Quarter
Nov 3
New
Nov 9
First Quarter
Nov 17
Full
Nov 25
Last Quarter

Hourly Weather History & Observations

Time (CDT) Temp. Dew Point Humidity Pressure Visibility Wind Dir Wind Speed Gust Speed Precip Events Conditions
12:15 AM 69.8 °F 62.6 °F 78% 30.09 in 10.0 mi South 9.2 mph - N/A   Partly Cloudy
12:35 AM 69.8 °F 62.6 °F 78% 30.09 in 10.0 mi South 8.1 mph - N/A   Scattered Clouds
12:55 AM 68.0 °F 62.6 °F 83% 30.08 in 10.0 mi South 6.9 mph - N/A Thunderstorm Mostly Cloudy
1:15 AM 68.0 °F 62.6 °F 83% 30.07 in 10.0 mi SSW 9.2 mph - N/A Thunderstorm Mostly Cloudy
1:35 AM 68.0 °F 62.6 °F 83% 30.07 in 10.0 mi SW 5.8 mph - N/A   Mostly Cloudy
1:55 AM 68.0 °F 62.6 °F 83% 30.07 in 10.0 mi SSW 5.8 mph - N/A   Mostly Cloudy
2:15 AM 68.0 °F 62.6 °F 83% 30.05 in 10.0 mi SSW 8.1 mph - N/A   Scattered Clouds
2:35 AM 68.0 °F 62.6 °F 83% 30.06 in 10.0 mi SSW 6.9 mph - N/A   Scattered Clouds
2:55 AM 68.0 °F 62.6 °F 83% 30.07 in 10.0 mi Calm Calm - N/A   Mostly Cloudy
3:15 AM 68.0 °F 64.4 °F 88% 30.08 in 8.0 mi NNW 3.5 mph - N/A   Overcast
3:35 AM 66.2 °F 64.4 °F 94% 30.07 in 10.0 mi NNE 5.8 mph - N/A Thunderstorm Overcast
3:55 AM 66.2 °F 62.6 °F 88% 30.07 in 10.0 mi NNE 3.5 mph - N/A Thunderstorm Overcast
4:15 AM 66.2 °F 60.8 °F 83% 30.07 in 10.0 mi North 3.5 mph - N/A Thunderstorm Overcast
4:35 AM 64.4 °F 62.6 °F 94% 30.06 in 10.0 mi South 4.6 mph - N/A Thunderstorm Overcast
4:55 AM 64.4 °F 62.6 °F 94% 30.05 in 10.0 mi ESE 3.5 mph - N/A   Partly Cloudy
5:15 AM 64.4 °F 62.6 °F 94% 30.05 in 10.0 mi Calm Calm - N/A   Clear
5:35 AM 64.4 °F 62.6 °F 94% 30.06 in 10.0 mi Calm Calm - N/A   Partly Cloudy
5:55 AM 62.6 °F 60.8 °F 94% 30.07 in 10.0 mi Calm Calm - N/A   Partly Cloudy
6:15 AM 62.6 °F 62.6 °F 100% 30.07 in 6.0 mi Calm Calm - N/A   Mostly Cloudy
6:35 AM 62.6 °F 62.6 °F 100% 30.08 in 10.0 mi ESE 3.5 mph - N/A   Overcast
6:53 AM 62.6 °F 62.6 °F 100% 30.08 in 10.0 mi SE 8.1 mph - N/A   Overcast
6:55 AM 62.6 °F 62.6 °F 100% 30.08 in 10.0 mi SE 8.1 mph - N/A   Overcast
7:45 AM 62.6 °F 62.6 °F 100% 30.09 in 10.0 mi SE 3.5 mph - N/A   Overcast
8:47 AM 62.6 °F 60.8 °F 94% 30.10 in 4.0 mi SE 4.6 mph - N/A   Overcast
9:45 AM 62.6 °F 60.8 °F 94% 30.13 in 5.0 mi SE 4.6 mph - N/A   Overcast
10:45 AM 64.4 °F 62.6 °F 94% 30.14 in 2.5 mi Calm Calm - N/A   Overcast
11:45 AM 64.4 °F 62.6 °F 94% 30.14 in 7.0 mi North 3.5 mph - N/A   Overcast
12:45 PM 66.2 °F 62.6 °F 88% 30.12 in 10.0 mi NNE 4.6 mph - N/A   Overcast
1:30 PM 69.8 °F 62.6 °F 78% 30.10 in 10.0 mi NNE 3.5 mph - N/A   Overcast
1:47 PM 69.8 °F 62.6 °F 78% 30.09 in 10.0 mi NNE 5.8 mph - N/A   Overcast
2:48 PM 71.6 °F 62.6 °F 73% 30.07 in 10.0 mi North 6.9 mph - N/A   Overcast
3:46 PM 69.8 °F 62.6 °F 78% 30.06 in 10.0 mi North 6.9 mph - N/A   Overcast
4:48 PM 69.8 °F 60.8 °F 73% 30.04 in 10.0 mi NNE 6.9 mph - N/A   Overcast
5:48 PM 69.8 °F 60.8 °F 73% 30.04 in 10.0 mi NNE 4.6 mph - N/A   Mostly Cloudy
6:48 PM 66.2 °F 62.6 °F 88% 30.04 in 10.0 mi East 5.8 mph - N/A   Overcast
7:48 PM 66.2 °F 62.6 °F 88% 30.05 in 10.0 mi East 3.5 mph - N/A   Overcast
8:48 PM 64.4 °F 59.0 °F 83% 30.06 in 10.0 mi Calm Calm - N/A   Partly Cloudy
9:48 PM 64.4 °F 62.6 °F 94% 30.07 in 10.0 mi Calm Calm - N/A   Overcast
10:15 PM 64.4 °F 62.6 °F 94% 30.07 in 7.0 mi Calm Calm - N/A   Overcast
10:35 PM 64.4 °F 62.6 °F 94% 30.07 in 7.0 mi Calm Calm - N/A   Overcast
10:55 PM 64.4 °F 62.6 °F 94% 30.08 in 5.0 mi Calm Calm - N/A   Mostly Cloudy
11:15 PM 64.4 °F 62.6 °F 94% 30.08 in 5.0 mi Calm Calm - N/A   Mostly Cloudy
11:35 PM 64.4 °F 62.6 °F 94% 30.06 in 5.0 mi Calm Calm - N/A   Mostly Cloudy
11:55 PM 62.6 °F 62.6 °F 100% 30.06 in 5.0 mi Calm Calm - N/A   Mostly Cloudy